Location: Baia de Cri?
(46.1667°N, 22.7167°E)
Time: 21:34:26
(UTC+00:00)

Cosmos 1500 Rocket - Pass Details

Date: 15 January 2026
Orbit: 597 x 623 km, 82.5° (Epoch: 10 February)

Event Time Altitude Azimuth Distance (km) Brightness Sun altitude
Rises 04:34:11 0° 203° (SSW) 2,849 6.9 -15.8°
Reaches altitude 10° 04:36:27 10° 209° (SSW) 1,955 6.0 -15.4°
Maximum altitude 04:40:37 46° 283° (WNW) 828 3.7 -14.7°
Drops below altitude 10° 04:44:51 10° 358° (N) 1,986 6.0 -14.0°
Sets 04:47:11 0° 4° (N) 2,900 6.9 -13.6°
